Location: Bermeries
(50.2863°N, 3.7551°E)
Time: 05:19:54
(UTC+00:00)

SL-8 R/B - Pass Details

Date: 23 May 2024
Orbit: 652 x 662 km, 48.4° (Epoch: 19 June)

Event Time Altitude Azimuth Distance (km) Brightness Sun altitude
Rises 00:57:30 0° 280° (W) 2,976 7.0 -17.1°
Reaches altitude 10° 00:59:55 10° 274° (W) 2,064 6.1 -17.0°
Maximum altitude 01:04:25 44° 203° (SSW) 913 3.9 -16.8°
Drops below altitude 10° 01:08:56 10° 132° (SE) 2,065 6.0 -16.5°
Sets 01:11:21 0° 126° (SE) 2,976 6.9 -16.4°
